Date,TemperatureHighF,TemperatureAvgF,TemperatureLowF,DewpointHighF,DewpointAvgF,DewpointLowF,HumidityHigh,HumidityAvg,HumidityLow,PressureMaxIn,PressureMinIn,WindSpeedMaxMPH,WindSpeedAvgMPH,GustSpeedMaxMPH,PrecipitationSumIn
2013-1-1,18.8,9.4,1.7,11.9,5.5,-1.7,89,84,73,30.78,30.61,11,3,11,0.00
2013-1-2,21.9,8.0,1.2,12.6,3.4,-2.8,89,82,65,30.80,30.72,6,1,6,0.00
2013-1-3,24.5,9.7,0.4,11.3,3.0,-3.0,87,75,48,30.84,30.75,7,3,7,0.00
2013-1-4,28.3,14.1,8.0,13.0,4.5,0.8,79,66,37,30.77,30.60,8,4,8,0.00
2013-1-5,33.4,17.2,8.4,18.1,9.3,1.6,84,71,48,30.74,30.56,8,2,8,0.00
2013-1-6,35.5,23.9,15.5,17.0,11.2,7.2,79,59,34,30.56,30.25,7,3,8,0.00
2013-1-7,33.0,21.5,13.3,23.7,11.3,3.7,86,65,38,30.36,30.26,8,2,9,0.00
2013-1-8,34.1,28.9,24.6,27.8,24.4,21.2,90,83,75,30.52,30.30,14,2,17,0.00
2013-1-9,41.4,27.4,17.3,27.2,20.3,14.6,93,76,44,30.53,30.00,13,1,13,0.00
2013-1-10,44.6,34.7,29.3,20.8,19.4,17.0,68,55,33,30.01,29.89,26,4,26,0.01
2013-1-11,14.3,11.1,8.5,10.9,6.9,4.4,87,83,78,30.23,29.57,26,11,26,0.00
2013-1-12,8.8,7.2,3.2,4.7,2.7,-0.3,86,82,78,30.29,30.23,11,2,11,0.00
2013-1-13,6.2,-2.1,-8.6,-0.3,-7.0,-12.9,85,79,67,30.68,30.43,12,2,12,0.02
2013-1-14,4.4,-2.5,-10.0,-2.6,-7.7,-15.0,85,78,68,30.90,30.67,14,2,14,0.00
2013-1-15,16.6,8.5,1.0,11.2,3.8,-3.5,87,81,72,30.98,30.88,11,1,11,0.02
2013-1-16,27.0,13.9,4.4,17.8,9.6,0.5,95,83,66,31.02,30.89,8,1,8,0.04
2013-1-17,34.1,18.7,10.7,23.1,13.8,7.1,90,81,55,30.92,30.73,7,1,7,0.00
2013-1-18,36.0,21.7,14.0,23.5,14.1,9.0,86,73,45,30.73,30.61,8,2,8,0.01
2013-1-19,37.7,23.8,17.0,21.4,13.5,9.2,80,65,40,30.72,30.62,8,3,8,0.00
2013-1-20,38.5,22.7,15.8,21.5,11.6,6.1,78,63,37,30.66,30.56,7,2,7,0.00
2013-1-21,42.9,24.8,15.7,19.0,11.6,5.4,74,58,28,30.67,30.55,7,2,7,0.00
2013-1-22,43.4,27.2,17.7,18.6,11.1,5.0,65,51,31,30.58,30.46,8,3,8,0.00
2013-1-23,47.7,33.4,24.8,22.7,14.5,8.4,62,47,22,30.50,30.32,9,3,9,0.00
2013-1-24,40.7,34.4,31.7,34.1,29.7,18.8,96,84,52,30.36,30.24,11,1,11,0.12
2013-1-25,39.9,33.9,29.6,34.8,31.6,27.8,96,92,74,30.36,30.19,8,1,8,0.00
2013-1-26,41.2,33.3,26.5,33.4,29.6,25.0,95,87,69,30.19,29.89,7,1,7,0.00
2013-1-27,35.9,28.5,20.3,32.2,26.1,16.2,96,91,71,29.93,29.69,23,3,23,0.07
2013-1-28,21.3,16.3,10.0,16.1,11.5,6.0,89,81,66,30.20,29.92,15,3,15,0.04
2013-1-29,22.0,15.8,8.7,16.8,11.4,5.8,90,83,74,30.45,30.12,22,2,22,0.00
2013-1-30,30.7,25.4,19.5,26.1,21.7,15.1,92,86,80,30.46,30.33,35,7,35,0.00
2013-1-31,34.2,30.0,28.5,25.0,23.9,22.4,84,78,66,30.46,30.38,12,2,12,0.09
2013-2-1,37.6,29.2,20.9,26.3,22.4,15.1,90,76,62,30.56,30.36,12,1,12,0.08
2013-2-2,38.9,24.9,15.5,20.5,16.1,11.8,87,71,38,30.68,30.55,4,1,4,0.08
2013-2-3,40.7,28.0,21.1,17.0,13.5,9.8,75,56,30,30.55,30.29,7,1,7,0.00
2013-2-4,39.0,27.2,19.6,19.5,14.7,11.2,79,61,37,30.38,30.29,20,2,22,0.01
2013-2-5,44.9,31.8,21.7,24.8,17.1,12.8,72,56,32,30.33,30.01,9,2,9,0.00
2013-2-6,38.3,30.7,18.7,20.6,16.6,11.4,76,56,40,30.27,29.99,19,3,19,0.00
2013-2-7,18.6,17.4,16.7,11.9,11.2,10.4,78,76,73,30.28,30.26,5,2,5,0.00
2013-2-8,35.4,27.5,22.8,25.7,19.9,14.1,93,74,56,30.11,29.72,26,8,26,0.00
2013-2-9,25.9,20.8,17.7,20.9,17.5,15.0,91,87,77,30.02,29.76,18,6,18,0.01
2013-2-10,22.6,16.4,12.3,16.0,12.6,9.2,90,85,71,30.13,30.02,9,1,9,0.00
2013-2-20,35.0,27.2,22.1,23.2,18.0,9.9,88,69,49,29.84,29.67,21,7,21,0.00
2013-2-21,25.3,20.1,14.8,20.3,14.6,9.4,88,79,69,30.23,29.85,21,11,21,0.00
2013-2-22,24.6,17.5,11.3,16.2,11.8,7.9,90,78,62,30.35,30.23,21,6,21,0.01
2013-2-23,24.0,17.1,13.5,20.5,13.9,9.1,91,87,79,30.31,29.95,40,11,40,0.00
2013-2-24,24.2,16.0,9.4,20.1,12.8,6.1,90,87,81,30.54,30.19,17,6,17,0.02
2013-2-25,29.2,16.6,5.1,21.5,11.5,1.2,90,80,66,30.55,30.30,22,6,22,0.01
2013-2-26,25.6,17.7,8.9,17.5,12.9,4.9,89,81,66,30.56,30.25,23,7,23,0.09
2013-2-27,26.1,14.2,3.6,13.3,7.2,0.6,88,75,53,30.77,30.56,18,5,18,0.00
2013-2-28,34.7,22.9,8.8,19.9,12.0,4.3,84,64,44,30.76,30.70,16,2,16,0.01
2013-3-1,41.9,33.4,26.0,29.5,25.6,20.6,84,73,60,30.72,30.56,22,3,22,0.00
2013-3-2,47.8,33.5,22.7,29.4,23.7,19.3,89,69,41,30.61,30.23,13,2,13,0.00
2013-3-3,37.8,34.0,31.8,32.8,29.3,21.4,94,83,60,30.23,29.93,20,3,20,0.24
2013-3-4,32.8,23.7,12.8,30.4,14.0,3.6,93,68,38,30.44,29.94,24,4,24,0.08
2013-3-5,45.9,25.7,9.4,20.4,10.4,1.6,83,56,22,30.54,30.19,11,2,11,0.00
2013-3-6,48.7,35.0,26.9,22.4,17.3,14.2,66,49,30,30.19,29.88,22,4,23,0.00
2013-3-7,42.9,33.4,27.4,30.5,27.5,25.2,93,80,53,30.01,29.91,11,3,11,0.04
2013-3-8,39.6,32.9,29.3,31.4,29.3,27.0,95,87,63,29.98,29.76,12,3,12,0.00
2013-3-9,30.3,29.3,28.1,29.0,27.6,26.0,95,93,90,29.94,29.77,0,0,0,0.00
2013-3-10,40.7,34.2,31.0,23.0,18.2,14.9,59,52,43,30.47,30.42,17,5,18,1.29
2013-3-11,42.2,35.2,25.8,28.1,21.6,15.2,73,58,45,30.46,30.24,22,3,22,0.00
2013-3-12,46.7,37.9,32.2,31.0,28.8,26.1,83,70,50,30.35,30.24,16,3,16,0.00
2013-3-13,55.2,39.8,29.0,30.8,27.1,24.5,87,63,31,30.47,30.34,10,3,12,0.00
2013-3-14,64.1,45.2,32.3,28.0,24.8,17.1,71,49,19,30.37,30.17,15,4,15,0.00
2013-3-15,57.9,46.4,39.0,29.7,23.9,16.7,63,44,21,30.17,29.96,19,4,19,0.00
2013-3-16,48.2,40.0,31.7,27.2,21.9,14.9,65,49,29,29.96,29.81,22,4,22,0.00
2013-3-17,41.7,31.6,26.0,30.0,21.4,11.1,90,66,42,30.07,29.75,33,6,33,0.09
2013-3-18,37.9,30.2,24.0,20.2,15.9,10.5,85,56,41,30.23,30.07,24,3,24,0.04
2013-3-19,44.9,32.7,21.3,16.6,4.8,-13.9,60,34,11,30.36,30.22,15,3,17,0.00
2013-3-20,31.6,28.1,26.7,18.2,11.6,7.4,60,49,42,30.27,30.12,5,2,5,0.00
2013-3-21,42.4,26.9,17.4,32.7,21.4,10.1,94,80,52,30.11,29.75,40,14,40,0.12
2013-3-22,23.1,19.0,15.6,18.4,12.9,7.4,88,77,61,30.21,30.07,22,5,22,0.00
2013-3-23,25.2,16.7,9.1,15.1,10.5,3.4,88,77,55,30.47,30.20,17,4,17,0.07
2013-3-24,28.6,15.6,6.0,16.5,9.1,2.4,88,76,50,30.51,30.45,21,3,21,0.03
2013-3-25,40.0,23.7,7.5,23.0,13.1,3.2,84,66,43,30.51,30.28,13,2,13,0.08
2013-3-26,50.2,35.2,25.9,29.4,22.1,16.8,88,63,28,30.28,29.99,24,3,24,0.00
2013-3-27,54.4,38.2,25.3,29.5,23.8,20.0,86,60,27,30.11,30.04,14,3,14,0.00
2013-3-28,56.6,42.5,30.9,28.0,24.6,20.5,72,52,26,30.09,30.00,16,3,16,0.00
2013-3-29,54.7,43.4,33.6,32.5,28.7,25.5,81,58,34,30.19,30.09,21,4,22,0.00
2013-3-30,56.2,42.4,31.3,31.4,26.8,22.4,81,57,30,30.21,30.14,17,4,23,0.00
2013-3-31,59.3,43.0,28.1,29.3,22.5,8.8,80,50,14,30.17,29.97,16,3,18,0.00
2013-4-1,45.1,38.6,32.1,37.1,33.1,27.0,95,81,52,29.98,29.84,16,2,17,0.23
2013-4-2,47.2,36.1,31.7,36.2,32.4,30.6,96,87,57,30.12,29.96,1,0,1,0.01
2013-4-4,60.0,45.4,31.5,32.0,26.5,22.7,77,51,26,30.18,29.92,16,6,16,0.00
2013-4-5,49.3,41.1,32.3,39.3,30.8,25.2,93,68,43,30.02,29.83,24,9,24,0.47
2013-4-6,48.5,38.3,30.3,35.8,28.4,24.2,88,69,40,30.08,30.00,15,6,15,0.13
2013-4-7,50.6,40.8,30.6,32.2,28.0,20.2,89,63,37,30.01,29.61,21,8,21,0.00
2013-4-8,44.8,33.8,20.3,32.0,28.0,17.2,94,81,34,29.62,29.36,20,5,20,0.06
2013-4-9,24.2,18.5,13.4,18.0,12.8,10.5,91,79,60,30.42,29.61,22,7,22,0.06
2013-4-10,40.2,28.7,12.0,28.2,19.6,8.3,90,70,51,30.47,30.15,15,2,15,0.61
2013-4-11,42.4,35.9,31.6,33.2,30.6,26.0,95,81,63,30.15,29.97,26,3,26,0.17
2013-4-12,49.5,37.7,27.0,29.2,24.3,18.3,83,61,31,30.09,29.92,20,4,20,0.00
2013-4-13,46.8,37.0,26.4,33.9,26.4,18.6,92,67,34,29.93,29.54,24,4,26,0.18
2013-4-14,38.9,28.1,19.8,21.8,11.8,4.9,89,52,28,29.95,29.79,22,3,22,0.06
2013-4-15,35.2,29.0,23.9,27.7,24.2,21.1,93,83,61,29.83,29.73,16,2,16,0.18
2013-4-16,29.5,25.9,20.4,23.8,19.5,13.9,91,77,59,30.09,29.75,15,2,19,0.06
2013-4-17,27.0,19.2,15.8,14.6,11.6,9.4,81,72,55,30.23,30.09,16,2,16,0.00
2013-4-18,37.8,28.0,16.1,12.1,6.7,-2.2,65,41,27,30.47,30.38,20,9,20,0.00
2013-4-19,45.3,32.7,22.4,31.8,21.4,9.9,93,64,46,30.45,30.11,25,6,25,0.01
2013-4-20,42.4,35.2,31.7,34.0,30.9,27.3,95,85,64,30.22,30.05,25,6,25,0.43
2013-4-21,53.2,40.0,28.9,30.8,26.0,22.4,87,60,36,30.25,30.02,20,3,20,0.00
2013-4-22,42.5,36.3,25.6,29.9,23.1,12.7,86,60,33,30.16,29.96,22,4,22,0.03
2013-4-23,41.7,30.4,18.9,21.1,13.7,-2.0,85,54,19,30.34,30.16,17,3,18,0.00
2013-4-24,30.3,28.5,26.9,14.8,12.1,9.7,56,50,45,30.29,30.26,5,1,6,0.00
2013-4-25,55.6,40.6,26.7,21.2,12.5,-5.0,64,35,12,30.20,30.02,23,9,23,0.00
2013-4-26,59.2,44.7,29.9,20.1,15.1,8.3,60,32,19,30.28,30.14,22,7,22,0.00
2013-4-27,63.4,47.9,32.9,27.8,20.5,11.7,58,36,18,30.29,30.09,23,7,23,0.00
2013-4-28,65.5,50.3,36.8,32.4,28.1,23.8,69,44,26,30.09,29.88,0,0,0,0.00
2013-4-29,62.4,52.5,42.0,32.2,27.6,21.8,56,39,30,29.92,29.62,16,0,16,0.00
2013-4-30,50.8,43.5,28.8,30.8,15.8,0.9,56,34,18,30.02,29.63,25,4,25,0.00
2013-5-1,39.2,30.3,24.5,25.5,12.7,2.3,82,49,31,30.72,30.02,23,4,23,0.01
2013-5-2,54.2,37.0,20.3,21.3,14.8,4.4,79,45,16,30.81,30.48,19,3,20,0.00
2013-5-3,61.7,45.2,29.2,19.7,15.7,6.8,64,35,13,30.49,29.98,22,4,23,0.00
2013-5-4,61.6,45.9,31.6,30.8,19.2,8.6,73,36,19,29.98,29.81,19,3,19,0.00
2013-5-5,64.0,47.5,32.8,32.7,28.9,23.3,79,52,22,29.92,29.81,21,3,22,0.00
2013-5-6,60.9,47.4,39.5,38.5,32.2,25.5,89,58,29,29.89,29.79,14,2,14,0.00
2013-5-7,55.7,44.5,34.3,39.0,34.4,29.3,94,71,40,29.95,29.83,16,2,17,0.03
2013-5-8,55.6,42.0,32.2,42.1,36.4,29.8,94,82,53,30.11,29.94,16,3,17,0.13
2013-5-9,63.8,48.2,33.6,40.7,32.4,22.1,96,62,21,30.15,30.04,23,4,23,0.01
2013-5-10,67.5,52.0,37.9,40.1,33.1,25.8,79,52,21,30.19,30.07,18,4,18,0.00
2013-5-11,70.8,55.0,38.9,35.4,29.5,20.2,75,42,18,30.23,30.13,17,4,19,0.00
2013-5-12,74.3,58.2,41.1,34.7,29.5,19.7,63,36,20,30.18,30.03,18,4,18,0.00
2013-5-13,79.2,62.4,45.1,37.2,32.2,26.1,62,36,15,30.06,29.83,16,3,16,0.00
2013-5-14,78.3,64.1,52.3,40.1,33.7,22.5,53,34,16,29.83,29.66,20,4,21,0.00
2013-5-15,74.2,60.9,48.4,42.1,36.2,27.3,65,41,23,29.74,29.60,23,1,23,0.00
2013-5-16,70.0,58.0,44.1,43.1,38.6,34.1,79,50,29,29.69,29.57,2,0,2,0.00
2013-5-17,58.9,48.7,43.0,44.6,39.5,33.8,92,71,41,29.83,29.64,10,0,10,0.00
2013-5-18,50.4,42.6,37.8,43.5,36.9,31.6,93,81,52,30.01,29.82,1,0,2,0.00
2013-5-19,50.6,41.8,33.9,39.6,34.8,30.6,93,77,52,30.10,30.00,16,0,16,0.00
2013-5-20,55.3,44.8,38.1,43.9,38.1,33.9,91,78,58,30.12,30.05,17,4,17,0.07
2013-5-21,64.1,49.6,34.7,41.7,33.1,21.2,94,59,22,30.09,29.73,17,3,19,0.00
2013-5-22,71.7,56.2,40.9,39.0,29.2,20.9,71,40,15,29.73,29.44,29,5,29,0.00
2013-5-23,66.0,47.3,29.0,35.9,29.4,21.5,85,55,20,29.91,29.57,29,4,34,0.00
2013-5-24,66.3,49.7,32.3,30.0,21.4,1.9,62,37,9,30.00,29.88,19,4,19,0.00
2013-5-25,70.2,57.2,44.2,29.7,22.4,14.9,50,28,13,29.88,29.71,21,4,27,0.00
2013-5-26,71.2,59.5,45.2,32.9,20.5,13.2,50,24,12,29.75,29.65,20,3,20,0.00
2013-5-27,66.2,54.5,46.7,38.7,31.4,23.2,56,42,27,29.77,29.66,22,4,22,0.00
2013-5-28,55.2,44.2,37.3,42.5,35.2,24.6,92,72,35,29.81,29.57,39,3,42,0.83
2013-5-29,55.2,43.4,36.2,39.0,34.4,28.0,94,73,41,29.88,29.80,23,3,23,0.15
2013-5-30,55.2,44.2,34.3,38.2,32.2,28.0,94,66,38,29.98,29.87,25,3,25,0.04
2013-5-31,59.2,47.3,38.1,30.5,24.4,14.7,71,42,24,30.20,29.98,21,4,21,0.00
2013-6-1,67.8,50.9,32.5,36.2,27.5,17.9,69,43,20,30.23,29.99,15,3,15,0.00
2013-6-2,78.5,61.3,39.8,35.5,27.6,16.2,66,34,12,29.99,29.55,23,4,23,0.00
2013-6-3,66.5,57.0,45.6,37.6,24.3,13.0,47,29,17,29.84,29.59,22,4,22,0.00
2013-6-4,69.3,54.1,37.8,34.4,28.5,19.6,62,39,23,29.98,29.84,22,4,23,0.00
2013-6-5,70.2,55.1,38.4,37.8,32.4,26.7,76,46,22,30.00,29.94,16,4,18,0.00
2013-6-6,76.3,60.0,42.9,39.9,34.4,26.6,70,42,20,29.98,29.88,15,3,16,0.00
2013-6-7,77.0,63.2,46.4,42.0,37.4,32.8,69,41,22,29.89,29.71,21,3,21,0.00
2013-6-8,67.4,62.5,55.5,40.3,37.0,27.1,55,39,22,29.73,29.68,15,4,15,0.00
2013-6-9,73.2,65.4,61.8,40.7,38.0,32.5,44,37,25,29.73,29.70,22,4,22,0.00
2013-6-10,84.7,70.3,54.1,48.2,30.8,10.4,62,28,8,29.73,29.53,25,3,25,0.00
2013-6-11,77.2,66.5,55.5,35.6,25.8,15.1,41,23,13,29.79,29.54,23,4,25,0.00
2013-6-12,77.3,63.8,46.8,49.1,34.1,23.2,60,36,14,29.85,29.71,20,2,20,0.00
2013-6-13,78.3,67.3,46.5,42.2,32.2,16.7,62,30,11,29.74,29.50,29,5,29,0.00
2013-6-14,66.0,52.6,40.1,37.9,31.6,23.5,67,46,30,30.01,29.74,20,3,20,0.00
2013-6-15,44.9,41.9,38.7,27.1,25.6,24.0,58,52,46,30.00,29.98,7,2,7,0.00
2013-6-16,78.3,60.9,43.1,38.5,27.5,19.4,54,31,13,29.92,29.82,7,2,7,0.00
2013-6-17,80.7,61.8,44.6,41.4,28.5,12.9,55,32,8,29.91,29.78,12,1,14,0.00
2013-6-18,80.7,63.8,45.0,37.3,24.5,11.2,49,26,9,29.80,29.53,19,4,19,0.00
2013-6-19,69.8,60.8,42.4,37.4,24.5,14.6,44,26,14,29.75,29.41,30,4,30,0.00
2013-6-20,66.0,49.8,34.1,35.2,28.6,20.9,72,46,28,29.91,29.74,20,3,20,0.00
2013-6-21,69.3,54.0,37.5,37.8,32.8,26.9,73,47,27,29.89,29.82,20,3,20,0.00
2013-6-22,64.3,53.5,39.2,37.8,32.8,29.9,74,48,31,29.91,29.84,24,4,24,0.00
2013-6-23,77.0,57.6,37.2,44.4,32.0,24.8,69,41,16,29.94,29.62,15,3,15,0.00
2013-6-24,74.1,61.9,51.0,44.2,34.0,24.6,74,38,21,29.69,29.52,21,3,22,0.00
2013-6-25,75.8,58.2,46.3,46.7,42.8,38.5,81,60,28,29.87,29.68,14,3,14,0.00
2013-6-26,82.8,67.9,53.9,50.1,45.1,39.5,63,46,28,29.90,29.82,17,6,17,0.00
2013-6-27,88.8,70.7,53.5,50.9,45.7,38.9,70,45,18,29.99,29.89,15,6,15,0.00
2013-6-28,91.7,73.7,56.2,53.6,43.2,34.4,64,37,15,29.97,29.82,13,5,13,0.00
2013-6-29,90.5,72.1,54.6,51.7,42.8,37.1,68,37,17,29.86,29.72,16,4,16,0.00
2013-6-30,89.0,72.7,56.3,52.3,42.5,27.4,62,37,12,29.84,29.72,15,3,15,0.00
2013-7-1,91.0,72.2,54.4,49.0,41.0,28.0,58,35,12,29.89,29.77,14,2,14,0.00
2013-7-2,89.6,71.4,55.4,49.7,43.0,34.1,63,38,15,29.87,29.73,15,3,16,0.00
2013-7-3,85.7,71.0,58.4,53.8,47.9,41.3,63,45,29,29.79,29.64,12,2,14,0.00
2013-7-4,81.2,67.2,55.2,59.6,53.1,46.6,93,64,33,29.78,29.61,28,3,29,1.03
2013-7-5,81.8,65.9,53.0,59.3,52.7,43.3,94,66,33,29.76,29.59,33,3,35,0.17
2013-7-6,81.5,60.4,50.6,57.3,50.9,40.8,92,74,31,29.86,29.68,17,2,24,0.23
2013-7-7,80.3,62.2,50.6,54.7,49.8,43.6,92,67,32,29.88,29.80,21,3,22,0.01
2013-7-8,83.8,64.4,52.5,56.9,49.2,40.8,87,62,24,29.95,29.84,17,2,23,0.08
2013-7-9,87.3,69.2,54.4,52.7,43.5,32.5,74,44,16,29.95,29.85,16,2,16,0.00
2013-7-10,88.0,67.7,51.5,51.1,40.6,30.7,64,40,16,29.90,29.73,6,1,6,0.00
2013-7-11,80.9,64.6,56.2,56.5,44.7,33.3,78,50,30,29.80,29.67,1,0,1,0.00
2013-7-12,72.0,59.9,53.6,56.7,52.7,47.8,93,78,50,29.88,29.77,1,0,1,0.00
2013-7-13,59.0,58.1,57.3,54.1,52.7,51.1,86,82,78,29.88,29.84,1,0,1,0.00
2013-7-14,81.7,63.9,49.2,58.2,49.3,38.6,93,65,22,29.98,29.84,1,0,1,0.00
2013-7-15,84.5,68.2,53.5,58.3,50.0,45.2,79,54,30,29.88,29.65,7,0,18,0.00
2013-7-16,82.5,65.5,57.3,62.7,53.5,48.8,91,68,34,29.89,29.71,8,2,21,0.69
2013-7-17,82.8,65.8,54.2,63.1,55.0,45.1,94,72,30,29.97,29.87,8,2,24,0.06
2013-7-18,88.1,68.2,52.9,57.5,51.0,39.8,91,60,21,29.97,29.82,6,2,12,0.00
2013-7-19,87.8,70.7,53.7,53.2,41.4,26.6,66,39,12,29.88,29.72,6,2,15,0.00
2013-7-20,88.3,69.9,53.8,49.2,36.4,23.3,62,33,11,29.78,29.67,6,2,17,0.00
2013-7-21,89.0,69.8,54.5,50.1,36.5,24.8,62,33,11,29.72,29.67,6,3,14,0.00
2013-7-22,88.6,70.4,53.1,45.2,35.0,22.8,54,30,11,29.79,29.72,6,3,15,0.00
2013-7-23,88.2,71.0,55.5,49.3,35.7,16.7,59,30,9,29.82,29.73,6,2,12,0.00
2013-7-24,80.7,65.8,54.9,50.7,40.2,24.0,69,41,21,29.83,29.78,10,2,27,0.00
2013-7-25,85.0,68.7,54.9,53.6,44.4,33.8,74,46,17,29.90,29.83,6,2,17,0.00
2013-7-26,87.0,70.2,52.6,49.0,38.4,27.6,65,35,13,29.96,29.83,6,3,18,0.00
2013-7-27,70.2,62.6,54.9,54.7,47.2,32.8,85,59,33,29.85,29.74,8,2,17,0.00
2013-7-28,77.0,62.6,51.3,55.1,49.5,43.3,92,66,37,29.82,29.73,8,2,18,0.00
2013-7-29,75.5,60.8,50.5,56.4,48.0,45.2,86,65,38,29.97,29.78,12,4,12,0.07
2013-7-30,82.7,65.2,48.9,49.5,42.8,31.3,84,50,18,30.05,29.96,8,2,18,0.00
2013-7-31,84.3,68.8,54.7,49.6,37.8,26.3,71,36,13,30.00,29.81,8,3,19,0.00
2013-8-1,84.9,71.2,59.4,53.1,43.9,34.9,52,38,25,29.81,29.57,9,3,25,0.00
2013-8-2,81.8,67.4,52.3,50.5,35.7,19.2,57,34,10,29.76,29.63,18,6,22,0.00
2013-8-3,82.3,69.5,55.2,39.4,29.7,22.3,44,24,11,29.84,29.76,19,7,24,0.00
2013-8-4,82.8,70.5,58.4,44.5,35.6,30.1,47,29,17,29.86,29.76,18,6,19,0.00
2013-8-5,83.8,68.2,53.1,45.6,38.1,33.0,58,35,18,29.83,29.74,32,7,40,0.00
2013-8-6,84.2,68.0,53.2,46.4,38.4,31.5,60,36,16,29.80,29.75,7,3,16,0.00
2013-8-7,83.2,64.9,52.4,44.6,37.3,31.8,58,38,16,29.80,29.72,10,3,23,0.00
2013-8-8,78.8,58.2,48.6,54.2,43.6,34.6,90,61,21,29.92,29.78,9,2,19,0.18
2013-8-9,79.1,59.9,45.9,46.4,40.7,30.5,84,53,18,29.96,29.90,11,2,23,0.00
2013-8-10,80.8,63.2,46.9,44.7,38.2,24.4,74,46,15,30.00,29.88,7,2,18,0.00
2013-8-11,78.5,64.2,50.4,45.3,39.2,32.9,66,42,20,29.96,29.84,15,5,18,0.00
2013-8-12,74.7,62.7,49.6,47.8,39.4,30.0,66,44,23,29.94,29.87,20,6,20,0.00
2013-8-13,79.2,62.4,46.7,45.6,38.6,31.0,74,45,19,30.00,29.90,7,1,7,0.00
2013-8-14,85.7,65.6,48.1,44.9,33.0,20.8,66,35,11,29.98,29.85,8,2,21,0.00
2013-8-15,86.8,67.8,50.0,40.9,29.0,18.6,50,27,9,29.92,29.83,7,2,19,0.00
2013-8-16,85.8,68.1,50.7,39.0,30.6,21.8,43,26,13,29.93,29.85,7,3,16,0.00
2013-8-17,62.2,60.3,59.1,40.4,37.4,35.3,49,43,38,29.87,29.84,3,2,7,0.00
2013-8-18,86.0,66.8,49.9,49.7,44.4,40.5,81,50,22,29.97,29.87,16,6,18,0.00
2013-8-19,85.7,67.6,54.9,49.1,45.0,41.9,63,46,25,29.91,29.79,18,6,21,0.00
2013-8-20,81.3,66.9,56.0,53.9,47.6,44.8,81,52,30,29.86,29.79,16,5,19,0.00
2013-8-21,82.8,65.7,50.8,52.1,46.8,40.9,85,55,27,29.93,29.84,18,6,18,0.00
2013-8-22,74.9,62.3,54.1,62.3,49.6,40.5,90,65,37,29.95,29.81,18,5,20,0.28
2013-8-23,54.8,53.0,51.2,51.7,50.7,49.1,94,92,89,29.94,29.86,5,1,11,0.00
2013-8-24,74.2,57.3,47.5,55.6,49.2,40.2,95,78,31,29.96,29.86,12,3,29,0.14
2013-8-25,73.8,61.1,47.2,51.9,47.9,44.2,91,65,38,30.02,29.90,8,2,17,0.00
2013-8-26,67.3,60.4,54.2,53.4,50.0,46.9,84,69,51,29.96,29.90,11,2,20,0.00
2013-8-27,69.3,60.0,52.9,58.1,52.5,49.3,94,77,54,29.96,29.87,6,1,13,0.19
2013-8-28,81.5,63.4,50.4,57.7,51.0,45.2,96,69,30,29.97,29.88,6,2,15,0.01
2013-8-29,81.2,66.2,53.5,53.1,49.2,46.1,81,57,32,29.98,29.91,6,2,19,0.00
2013-8-30,85.0,68.8,54.7,52.4,48.5,44.0,76,52,28,29.96,29.81,8,3,17,0.00
2013-8-31,82.8,67.3,55.1,53.2,49.0,43.0,76,54,26,29.86,29.80,7,2,17,0.00
2013-9-1,75.3,63.8,57.0,56.4,50.7,46.1,92,64,41,29.85,29.76,9,2,18,0.06
2013-9-2,78.0,64.6,57.2,58.8,54.9,50.3,94,73,42,29.86,29.79,5,2,16,0.01
2013-9-3,77.2,63.8,52.9,58.4,53.2,49.6,90,70,40,29.94,29.84,10,2,20,0.00
2013-9-4,82.8,65.5,52.0,56.0,52.2,48.9,91,66,35,30.02,29.90,7,2,17,0.00
2013-9-5,83.0,68.6,53.6,53.2,48.3,41.4,83,52,24,29.96,29.82,8,2,23,0.00
2013-9-6,70.8,61.1,57.1,50.3,46.9,44.4,67,60,46,29.90,29.86,5,1,11,0.00
2013-9-7,78.0,60.9,51.0,55.7,49.7,46.8,95,69,37,29.97,29.79,12,3,27,0.39
2013-9-8,61.7,53.5,49.4,53.9,50.5,47.8,96,90,71,29.97,29.88,5,1,11,0.30
2013-9-9,72.5,57.4,46.2,52.4,47.3,43.1,96,72,37,29.93,29.80,6,2,14,0.01
2013-9-10,67.0,56.2,50.9,54.7,47.8,44.2,92,75,48,29.92,29.82,8,3,16,0.00
2013-9-11,66.7,56.8,50.0,55.4,51.7,48.1,94,84,59,29.98,29.91,11,3,21,0.00
2013-9-12,66.0,54.6,48.9,51.4,48.5,45.3,95,82,53,30.03,29.91,10,3,20,0.07
2013-9-13,59.4,53.0,47.9,54.3,50.3,46.5,96,91,81,29.89,29.79,9,1,17,0.24
2013-9-14,59.2,50.7,47.7,54.4,48.9,46.6,97,94,81,29.87,29.82,5,1,9,0.04
2013-9-15,64.1,50.3,47.1,53.6,47.9,45.7,97,92,62,29.99,29.90,10,3,16,0.01
2013-9-16,75.0,57.0,45.6,54.0,47.0,39.3,95,73,29,29.99,29.85,9,4,11,0.02
2013-9-17,71.1,61.4,53.1,59.3,46.5,36.6,89,61,33,29.86,29.52,20,7,25,0.27
2013-9-18,66.0,53.4,37.8,40.7,34.7,21.4,66,50,36,29.94,29.51,21,10,22,0.00
2013-9-19,60.0,45.2,31.7,33.4,29.3,23.4,85,57,30,30.16,29.94,14,6,16,0.00
2013-9-20,73.4,51.7,33.5,39.2,31.5,26.6,79,51,19,30.13,29.87,13,5,14,0.00
2013-9-21,73.1,59.1,45.0,40.7,35.1,28.9,66,44,23,29.87,29.50,9,4,24,0.00
2013-9-22,60.2,53.3,45.0,40.3,36.5,30.1,78,53,35,29.73,29.44,13,5,26,0.00
2013-9-23,57.7,47.8,40.0,38.3,34.5,31.2,76,60,43,30.07,29.74,13,5,24,0.00
2013-9-24,71.9,53.7,36.0,37.2,27.7,13.0,83,45,13,30.07,29.62,10,4,25,0.00
2013-9-25,60.8,45.8,32.7,39.0,30.1,24.5,95,62,25,29.69,29.33,28,8,28,0.62
2013-9-26,43.9,34.9,32.1,38.0,32.9,30.8,96,92,77,29.91,29.68,5,1,13,0.18
2013-9-27,37.1,33.6,28.8,32.5,29.8,26.1,95,86,75,30.31,29.90,10,3,22,0.05
2013-9-28,53.9,37.4,24.6,33.4,27.4,22.3,95,71,30,30.42,30.26,6,2,13,0.06
2013-9-29,65.2,50.0,34.3,32.3,27.3,22.8,74,46,21,30.26,29.91,9,3,23,0.00
2013-9-30,68.8,58.1,46.5,32.7,29.5,24.3,58,35,24,29.91,29.72,16,3,29,0.00
2013-10-1,69.5,51.7,38.0,35.8,31.3,26.1,76,49,21,29.90,29.81,7,2,19,0.00
2013-10-2,66.0,48.6,39.7,40.8,35.4,29.4,89,63,30,29.89,29.72,10,2,22,0.02
2013-10-3,43.4,35.3,29.4,40.2,29.3,21.1,92,79,60,30.08,29.68,13,3,27,0.18
2013-10-4,35.9,30.0,25.5,28.2,25.6,22.4,94,84,68,30.56,30.07,6,2,12,0.30
2013-10-5,45.3,33.6,25.3,30.8,25.8,22.4,89,74,53,30.64,30.54,6,3,15,0.04
2013-10-6,62.2,41.7,27.8,34.8,28.1,22.3,85,62,31,30.58,30.29,5,2,9,0.00
2013-10-7,70.5,49.1,33.8,32.6,25.4,16.0,75,45,13,30.29,29.86,6,2,14,0.00
2013-10-8,59.4,48.3,37.1,30.5,24.5,18.1,61,40,22,29.86,29.68,8,3,17,0.00
2013-10-9,60.2,43.0,31.5,35.9,28.2,23.7,87,59,28,29.78,29.71,8,2,25,0.00
2013-10-10,42.7,37.9,34.6,38.7,34.9,32.2,94,89,80,29.91,29.62,10,2,21,0.11
2013-10-11,47.2,37.7,29.5,34.7,28.5,22.8,92,71,43,30.14,29.90,9,3,21,0.00
2013-10-12,55.1,38.0,26.7,30.5,24.9,21.8,87,64,29,30.17,30.03,7,2,16,0.00
2013-10-13,48.3,39.8,35.7,39.5,35.1,32.4,92,83,64,30.00,29.86,12,4,24,0.02
2013-10-14,42.4,35.2,30.4,35.2,31.2,27.8,93,86,65,30.30,30.00,8,3,17,0.11
2013-10-15,30.7,29.1,27.1,28.3,27.0,25.3,94,92,89,30.35,30.29,2,0,5,0.00
2013-10-16,46.9,32.7,21.7,28.7,22.2,18.2,88,67,40,30.40,30.29,16,4,16,0.00
2013-10-17,47.8,35.1,25.2,26.3,22.1,18.6,77,61,36,30.30,30.16,24,6,24,0.00
2013-10-18,33.4,31.7,30.1,24.6,24.0,23.0,76,73,68,30.27,30.25,6,4,6,0.00
2013-10-21,55.7,45.9,35.2,28.6,25.6,22.4,60,46,32,30.31,30.23,7,2,14,0.00
2013-10-22,59.7,42.1,30.2,30.0,25.9,22.8,77,55,27,30.33,30.20,4,2,11,0.00
2013-10-23,62.3,44.2,31.7,28.9,25.1,13.7,76,50,26,30.23,30.11,6,2,13,0.00
2013-10-24,63.7,45.3,33.4,27.9,24.2,19.6,71,46,24,30.17,30.09,8,3,16,0.00
2013-10-25,60.9,46.4,37.9,29.3,23.6,19.5,56,42,24,30.26,30.15,7,3,15,0.00
2013-10-26,59.5,43.5,32.4,28.1,22.2,18.0,72,46,21,30.33,30.23,8,3,18,0.00
2013-10-27,60.4,44.4,31.9,33.8,21.2,14.9,64,43,18,30.23,29.66,7,3,19,0.01
2013-10-28,52.7,40.5,30.8,33.8,30.2,22.8,95,70,33,29.74,29.39,12,3,27,0.06
2013-10-29,37.9,31.5,26.3,32.3,29.2,24.3,95,91,80,30.03,29.72,3,1,6,0.42
2013-10-30,36.0,30.0,24.8,30.4,26.7,22.9,94,88,79,30.20,30.03,10,2,22,0.15
2013-10-31,39.4,34.1,30.3,30.8,27.4,25.8,87,77,62,30.30,30.20,12,5,21,0.00
2013-11-1,48.7,37.9,30.2,34.0,30.8,25.9,85,76,53,30.37,30.25,13,5,26,0.00
2013-11-2,57.4,37.5,25.3,28.8,22.2,16.2,89,58,23,30.31,29.83,5,2,10,0.00
2013-11-3,47.7,30.3,17.8,26.7,19.2,11.9,89,65,28,30.11,29.75,11,5,27,0.00
2013-11-4,28.0,22.0,17.7,20.5,15.6,10.7,89,76,65,30.32,30.10,6,2,15,0.00
2013-11-5,27.4,20.9,16.1,18.0,15.0,10.6,91,78,58,30.60,30.32,6,2,16,0.02
2013-11-6,39.0,29.1,19.0,28.2,21.4,14.2,85,73,55,30.69,30.59,5,1,13,0.02
2013-11-7,51.7,37.2,24.6,33.0,25.9,19.8,89,67,30,30.62,30.11,5,2,15,0.01
2013-11-8,50.6,42.6,31.5,27.8,23.0,19.1,71,47,29,30.11,29.99,9,3,24,0.00
2013-11-9,55.6,39.1,29.8,27.1,23.1,20.6,73,55,29,30.29,30.07,6,2,12,0.00
2013-11-10,56.7,39.6,30.2,25.5,22.0,19.5,68,51,25,30.35,30.28,6,2,14,0.00
2013-11-11,58.8,41.5,31.7,25.8,20.2,16.3,65,45,19,30.49,30.34,6,3,13,0.00
2013-11-12,59.4,40.6,30.7,32.7,23.2,17.3,65,51,26,30.56,30.42,5,2,8,0.00
2013-11-13,53.9,41.7,33.3,31.1,24.3,19.9,75,51,31,30.42,30.21,12,4,23,0.00
2013-11-14,47.7,34.3,25.4,29.1,21.2,12.4,80,60,36,30.24,29.84,7,2,13,0.00
2013-11-15,35.2,29.3,19.8,29.8,23.7,16.8,92,80,56,29.84,29.74,9,3,18,0.04
2013-11-16,31.2,26.9,19.7,26.3,23.2,16.1,92,86,73,29.92,29.68,10,2,23,0.00
2013-11-17,38.4,29.3,23.2,29.1,24.4,20.2,92,82,58,30.33,29.92,6,2,15,0.34
2013-11-18,43.4,31.2,23.8,33.2,25.5,20.4,90,80,57,30.39,30.13,8,3,9,0.00
2013-11-19,40.9,34.3,30.5,33.6,29.6,23.5,94,83,60,30.13,29.97,6,2,17,0.14
2013-11-20,40.5,34.6,30.0,34.7,32.0,28.1,95,90,75,30.01,29.88,3,0,6,0.02
2013-11-21,32.6,32.4,32.2,31.5,31.2,30.9,96,95,95,29.92,29.91,0,0,1,0.00
2013-11-22,22.7,15.8,8.6,15.0,8.6,3.3,92,73,54,30.77,30.57,10,5,12,0.03
2013-11-23,31.3,19.9,10.1,19.9,9.2,4.0,83,64,46,30.74,30.51,15,6,15,0.09
2013-11-28,31.7,30.9,29.9,23.3,22.9,22.1,75,72,68,30.28,30.27,6,3,6,0.00
2013-11-29,46.5,32.2,26.0,28.0,23.2,20.0,79,70,47,30.41,30.28,10,2,18,0.00
2013-11-30,43.2,30.4,23.4,24.6,21.9,18.6,83,72,45,30.46,30.38,5,2,13,0.00
2013-12-1,43.7,36.5,27.8,28.7,26.0,22.3,81,66,51,30.44,30.16,10,2,23,0.00
2013-12-2,45.3,37.8,32.4,31.6,26.0,17.6,94,66,34,30.17,29.64,13,3,28,0.04
2013-12-3,33.3,19.2,10.8,31.1,16.5,7.8,95,89,84,29.89,29.56,9,1,18,0.00
2013-12-4,11.1,4.6,-4.8,8.1,-0.3,-8.6,89,80,64,30.46,29.86,7,1,18,0.00
2013-12-5,9.1,-1.7,-8.4,2.1,-6.4,-12.5,92,80,68,30.56,30.45,3,1,8,0.00
2013-12-6,10.5,0.6,-8.4,4.6,-4.0,-12.3,85,80,62,30.62,30.47,3,0,5,0.00
2013-12-7,16.6,10.8,1.9,13.3,7.7,-2.1,90,87,83,30.47,30.01,9,2,21,0.00
2013-12-8,11.7,6.0,-1.0,7.4,1.3,-5.3,85,81,74,30.46,30.11,11,4,25,0.00
2013-12-9,10.3,2.4,-2.9,1.4,-2.9,-7.7,85,79,59,30.96,30.53,22,4,22,0.00
2013-12-10,28.4,14.9,-2.0,16.4,8.3,-5.6,86,75,53,30.96,30.73,4,1,10,0.15
2013-12-11,29.2,15.4,8.6,19.4,11.1,5.0,88,83,63,30.81,30.70,5,2,7,0.00
2013-12-12,31.9,21.0,13.9,24.8,16.1,10.2,87,81,70,30.81,30.39,4,3,7,0.11
2013-12-13,31.2,22.4,16.9,18.2,15.3,11.5,86,74,53,30.62,30.32,7,2,14,0.00
2013-12-14,28.1,20.6,13.8,22.2,16.7,11.2,92,85,76,30.82,30.61,5,1,14,0.00
2013-12-15,39.2,24.5,15.7,24.0,17.2,12.8,91,75,45,30.82,30.68,4,2,8,0.03
2013-12-16,44.5,29.8,23.4,22.7,17.0,12.9,75,60,29,30.68,30.57,5,2,13,0.00
2013-12-17,40.7,29.3,22.2,24.0,16.7,11.4,68,59,44,30.67,30.38,5,2,7,0.00
2013-12-18,46.1,33.7,26.0,30.7,21.3,16.1,90,62,35,30.38,29.75,4,2,7,0.00
2013-12-19,33.4,28.7,22.3,32.1,26.6,19.6,95,92,87,29.92,29.57,2,0,7,0.19
2013-12-20,22.7,18.2,12.5,20.0,15.2,9.7,92,88,80,30.09,29.92,0,0,0,0.02
2013-12-21,25.7,20.8,14.5,21.5,17.5,11.9,91,87,82,30.32,29.98,7,2,16,0.00
2013-12-22,28.2,24.7,20.6,25.7,21.6,17.3,93,88,81,30.52,30.32,11,2,22,0.00
2013-12-23,35.7,30.0,26.6,30.7,27.3,24.3,94,90,81,30.60,30.44,8,2,16,0.02
2013-12-24,38.6,28.3,15.0,30.8,20.1,8.4,93,73,45,30.62,30.33,14,4,31,0.07
2013-12-25,30.3,17.4,10.5,16.8,10.0,6.1,84,73,50,30.88,30.68,6,3,8,0.08
2013-12-26,37.1,23.6,15.3,18.1,11.6,6.3,73,61,36,30.86,30.69,4,2,7,0.06
2013-12-27,41.2,28.2,22.1,25.0,18.9,11.9,83,68,50,30.71,30.36,4,2,7,0.00
2013-12-28,39.3,27.1,16.1,18.9,16.6,11.9,86,66,36,30.42,30.18,9,2,20,0.01
2013-12-29,24.0,15.2,10.9,15.9,10.6,7.2,87,82,67,30.58,30.41,4,2,6,0.00
2013-12-30,35.2,23.1,15.0,17.7,13.0,8.8,81,66,40,30.68,30.51,6,3,7,0.00
2013-12-31,39.2,32.4,20.7,29.6,23.7,15.0,88,71,48,30.51,30.27,24,8,25,0.01
2014-1-1,35.2,28.6,20.3,24.1,19.8,14.3,83,70,53,30.51,30.26,26,6,29,0.00
2014-1-2,40.4,25.9,18.5,22.7,16.8,13.6,85,69,40,30.59,30.39,4,2,7,0.00